Location: Unspecified
(52.4292°N, 19.3359°E)
Time: 20:26:46
(UTC+02:00)

Tiros 1 - Pass Details

Date: 20 May 2024
Orbit: 624 x 657 km, 48.4° (Epoch: 15 June)

Event Time Altitude Azimuth Distance (km) Brightness Sun altitude
Rises 14:45:45 0° 243° (WSW) 2,975 11.2 49.5°
Reaches altitude 10° 14:48:09 10° 237° (WSW) 2,066 10.7 49.2°
Maximum altitude 14:52:41 44° 166° (SSE) 904 8.8 48.7°
Drops below altitude 10° 14:57:13 10° 94° (E) 2,066 9.5 48.1°
Sets 14:59:38 0° 88° (E) 2,975 10.2 47.9°
